Location: Unspecified
(0.0000°N, 0.0000°E)
Time: 00:27:05
(UTC+00:00)

Shinsei - Pass Details

Date: 08 December 2023
Orbit: 869 x 1860 km, 32.1° (Epoch: 01 March)

Event Time Altitude Azimuth Distance (km) Brightness Sun altitude
Exits shadow 04:32:36 20° 260° (W) 2,367 11.0 -18.2°
Maximum altitude 04:37:23 46° 324° (NW) 1,352 9.9 -17.1°
Drops below altitude 10° 04:43:21 10° 37° (NE) 2,620 11.9 -15.7°
Sets 04:45:52 0° 43° (NE) 3,499 12.7 -15.1°
